Location: �clusier
(49.9361°N, 2.7869°E)
Time: 03:28:53
(UTC+00:00)

Cosmos 1943 Rocket - Pass Details

Date: 01 November 2021
Orbit: 811 x 844 km, 71.0° (Epoch: 07 December)

Event Time Altitude Azimuth Distance (km) Brightness Sun altitude
Rises 21:19:01 0° 321° (NW) 3,411 6.1 -45.6°
Reaches altitude 10° 21:22:03 10° 306° (NW) 2,468 5.2 -46.0°
Enters shadow 21:22:32 12° 302° (WNW) 2,338 5.0 -46.0°
